User: anonymous   Login
Location: Keeble Observatory
(37.7625°N, 77.4755°W)
Time: 15:01:44
(UTC-05:00)
Language:

Cosmos 1484 Rocket - Orbit

View from above orbital plane
View from above orbital plane
View from above satellite
View from above satellite

Ground track
Ground track

The orbit data is extracted from the following two-line orbital elements,

1 14208U 83075B   14328.38119903  .00004158  00000-0  27067-3 0  1805
2 14208 097.4074 359.4888 0043343 113.1809 247.3994 15.07702230706337
Epoch (UTC): 24 November 2014 09:08:55
Eccentricity: 0.0043343
inclination: 97.4074°
perigee height: 513 km
apogee height: 573 km
right ascension of ascending node: 359.4888°
argument of perigee: 113.1809°
revolutions per day: 15.07702230
mean anomaly at epoch: 247.3994°
orbit number at epoch: 70633

The dashed part of the orbit path shows where the satellite is in the earth's shadow,  

DLR